プルーイン彗星

P/2019 X1 ( Pruyne )

English version
Home page
Updated on January 20, 2020

---------------------------------------------------------------------

・ プロフィール

発見日 2019年12月2日
発見光度 19.4等
発見者 Theodore A. Pruyne (Mt. Lemmon Survey)

・ 軌道要素

Epoch 2019 July 16.0 TT = JDT 2458680.5
T 2019 July 20.48139 TT                                 Williams
q   4.3037044            (2000.0)            P               Q
n   0.06419032     Peri.   36.67610     +0.17330391     -0.97716351
a   6.1776461      Node    43.72673     +0.85606437     +0.08773490
e   0.3033424      Incl.   10.24613     +0.48694923     +0.19353051
P  15.4
From 83 observations 2019 Nov. 29-2020 Jan. 6, mean residual 0".4.

・ 光度変化

        m1 = 10.0 + 5 logΔ + 10.0 log r

---------------------------------------------------------------------

軌道要素はM.P.E.C. 2020-A105に掲載されたものです。
光度グラフはComet for Windowsで作成したものです。

---------------------------------------------------------------------

Copyright(C) Seiichi Yoshida (comet@aerith.net). All rights reserved.